Spokane Felts, WA

10:28 AM PDT on March 27, 2017 (GMT -0700)
Felts

Weather History for KSFF - March, 2013

Change the Weather History Date:

Monday, March 4, 2013

  Actual Average Record
Temperature  
Mean Temperature 37 °F 38 °F  
Max Temperature 47 °F 47 °F 60 °F (2016)
Min Temperature 26 °F 28 °F 18 °F (2015)
Degree Days  
Heating Degree Days 28 27  
Month to date heating degree days 89 111  
Since 1 July heating degree days 4197 4682  
Cooling Degree Days 0 0  
Month to date cooling degree days 0 0  
Year to date cooling degree days 0 0  
Moisture  
Dew Point 20 °F    
Average Humidity 58    
Maximum Humidity 84    
Minimum Humidity 31    
Precipitation  
Precipitation 0.00 in 0.04 in 0.13 in (1999)
Month to date precipitation T 0.16  
Year to date precipitation 2.23 3.49  
Sea Level Pressure  
Sea Level Pressure 30.23 in    
Wind  
Wind Speed 2 mph (ESE)    
Max Wind Speed 13 mph    
Max Gust Speed 17 mph    
Visibility 10 miles    
Events      
T = Trace of Precipitation, MM = Missing Value Source: NWS Daily Summary

Daily Weather History Graph

Daily Weather History Graph

Search for Another Location

Airport or City:

Trip Planner

Search our weather history database for the weather conditions in past years. The results will help you decide how hot, cold, wet, or windy it might be!

Date:

Astronomy

Mar. 04, 2013 Rise Set
Actual Time 6:23 AM PST 5:39 PM PST
Civil Twilight 5:52 AM PST 6:09 PM PST
Nautical Twilight 5:17 AM PST 6:45 PM PST
Astronomical Twilight 4:41 AM PST 7:21 PM PST
Moon 12:56 AM PST (3/4) 10:06 AM PST (3/4)
Length of Visible Light 12h 17m
Length of Day
11h 15m
Waning Gibbous, 51% of the Moon is Illuminated
Mar 4
Waning Gibbous
Mar 4
Last Quarter
Mar 11
New
Mar 19
First Quarter
Mar 27
Full

Hourly Weather History & Observations

Time (PST) Temp. Windchill Dew Point Humidity Pressure Visibility Wind Dir Wind Speed Gust Speed Precip Events Conditions
12:53 AM 30.0 °F - 21.9 °F 72% 30.23 in 10.0 mi Calm Calm - N/A   Clear
1:53 AM 28.9 °F - 21.9 °F 75% 30.25 in 10.0 mi Calm Calm - N/A   Mostly Cloudy
2:53 AM 28.9 °F - 21.9 °F 75% 30.25 in 10.0 mi Calm Calm - N/A   Partly Cloudy
3:53 AM 28.9 °F - 23.0 °F 78% 30.27 in 10.0 mi Calm Calm - N/A   Clear
4:53 AM 28.0 °F - 21.9 °F 78% 30.28 in 10.0 mi Calm Calm - N/A   Clear
5:53 AM 27.0 °F - 21.9 °F 81% 30.29 in 10.0 mi Calm Calm - N/A   Clear
6:53 AM 27.0 °F - 23.0 °F 85% 30.31 in 10.0 mi Calm Calm - N/A   Clear
7:53 AM 32.0 °F 27.5 °F 24.1 °F 73% 30.30 in 10.0 mi ENE 4.6 mph - N/A   Clear
8:53 AM 37.0 °F 29.8 °F 21.9 °F 54% 30.31 in 10.0 mi East 10.4 mph - N/A   Clear
9:53 AM 41.0 °F 35.8 °F 18.0 °F 40% 30.30 in 10.0 mi ESE 8.1 mph - N/A   Clear
10:53 AM 42.1 °F 38.4 °F 17.1 °F 37% 30.30 in 10.0 mi Variable 5.8 mph - N/A   Clear
11:53 AM 44.1 °F 39.5 °F 18.0 °F 35% 30.27 in 10.0 mi East 8.1 mph - N/A   Clear
12:53 PM 45.0 °F - 17.1 °F 33% 30.26 in 10.0 mi Calm Calm - N/A   Scattered Clouds
1:53 PM 45.0 °F - 16.0 °F 31% 30.22 in 10.0 mi Calm Calm - N/A   Scattered Clouds
2:53 PM 45.0 °F 40.1 °F 16.0 °F 31% 30.22 in 10.0 mi South 9.2 mph - N/A   Mostly Cloudy
3:53 PM 45.0 °F - 17.1 °F 33% 30.20 in 10.0 mi Calm Calm - N/A   Scattered Clouds
4:53 PM 44.1 °F 41.5 °F 16.0 °F 32% 30.18 in 10.0 mi SSW 4.6 mph - N/A   Partly Cloudy
5:53 PM 37.9 °F - 19.0 °F 47% 30.18 in 10.0 mi Calm Calm - N/A   Clear
6:53 PM 34.0 °F - 19.9 °F 56% 30.17 in 10.0 mi Calm Calm - N/A   Clear
7:53 PM 32.0 °F - 19.9 °F 61% 30.17 in 10.0 mi Calm Calm - N/A   Clear
8:53 PM 32.0 °F - 19.9 °F 61% 30.14 in 10.0 mi Calm Calm - N/A   Clear
9:53 PM 32.0 °F - 18.0 °F 56% 30.13 in 10.0 mi Calm Calm - N/A   Clear
11:53 PM 30.0 °F - 19.0 °F 64% 30.11 in 10.0 mi Calm Calm - N/A   Clear